Temperature
21 22 22 23 23 23 21 20 20 20 20 20 19 19 20 20 20 20 20 20 20 20 20 20 20 19 19 19 19 19 19 18 18 18 18 18 18 18 17 17 17 17 16 16
21 23 23 23 24 23 23 22 21 21 20 19 19 20 20 19 19 19 19 19 19 19 19 20 20 19 19 19 19 19 18 18 18 18 18 18 17 17 17 17 17 16 16 16
19 21 22 21 22 23 23 23 22 21 20 18 18 18 18 18 18 18 18 18 19 19 19 19 19 19 19 18 18 18 18 17 17 17 17 17 17 17 17 16 16 16 16 16
17 19 20 21 21 22 22 21 21 20 19 18 17 17 17 18 18 17 17 18 18 18 19 18 18 18 18 18 18 17 17 17 17 17 17 16 16 16 16 16 15 15 15 15
16 18 19 20 20 20 20 19 19 19 18 17 16 16 15 16 17 17 17 17 17 17 17 17 17 17 17 17 17 16 16 16 16 16 16 15 15 15 15 14 14 14 14 14
16 18 18 19 19 20 20 18 18 18 17 17 17 15 14 15 16 16 16 16 16 16 16 16 16 16 16 16 15 15 15 14 14 15 14 14 14 14 14 13 13 13 13 13
16 17 18 17 18 19 19 18 18 18 17 17 16 16 14 14 15 15 15 15 15 15 15 15 15 15 15 15 14 14 13 14 14 13 13 13 13 13 13 13 13 12 12 12
15 16 17 16 17 17 17 17 17 17 17 17 16 15 14 14 14 14 14 14 15 15 14 14 14 15 14 13 13 13 13 13 13 12 12 12 12 12 12 12 12 11 11 11
14 15 15 15 16 17 17 17 17 17 17 16 15 14 14 14 14 14 14 14 14 14 13 13 13 13 13 12 12 12 12 12 12 12 11 11 11 11 11 11 11 11 10 10
14 14 14 15 16 17 17 17 17 17 16 16 14 14 13 13 13 13 13 13 13 13 13 12 12 12 12 12 11 11 11 11 11 11 11 11 11 11 10 10 10 10 10 9
14 14 14 15 16 16 17 17 16 16 16 15 14 13 13 13 13 13 13 12 13 12 12 12 11 11 11 11 11 11 11 11 11 10 10 10 10 10 10 9 9 9 9 9
14 14 14 14 15 16 16 15 15 15 14 14 14 14 13 13 13 12 12 12 12 12 11 11 11 11 11 11 11 11 10 10 10 10 10 10 10 9 9 9 8 8 8 8
15 15 15 15 15 15 15 15 14 14 14 14 14 13 13 13 12 12 12 12 12 11 11 11 11 11 10 10 10 10 10 10 10 9 9 9 9 9 8 8 8 7 7 7
16 15 14 14 14 15 15 14 14 14 14 13 13 13 13 13 12 12 12 12 12 11 11 11 11 10 10 10 10 10 9 9 9 9 9 8 8 8 7 7 7 6 6 6
15 15 14 14 14 14 14 14 13 13 13 13 13 13 13 12 12 12 12 11 11 11 11 10 10 10 10 10 9 9 9 9 8 8 8 8 7 7 7 6 6 5 5 5
14 14 14 14 13 13 13 13 13 13 13 13 13 12 12 12 12 11 11 11 11 11 10 10 10 10 9 9 9 9 8 8 8 7 7 7 6 6 6 5 5 5 4 4
14 14 13 13 13 13 13 13 13 13 13 13 12 12 12 12 11 11 11 11 10 10 10 10 9 9 9 9 8 8 8 7 7 7 6 6 6 5 5 4 4 4 3 3
14 14 14 14 13 13 13 13 13 13 12 12 12 12 12 11 11 11 10 10 10 10 9 9 9 8 8 8 7 7 7 6 6 6 5 5 5 4 4 3 3 3 3 3
14 14 14 13 13 13 13 13 12 12 12 12 12 11 11 11 11 10 10 10 9 9 9 8 8 8 7 7 7 6 6 6 5 5 5 4 4 4 3 3 3 2 2 2
13 13 13 13 13 13 12 12 12 12 12 11 11 11 11 10 10 10 10 9 9 9 8 8 7 7 7 6 6 6 5 5 5 4 4 4 3 3 3 2 2 2 2 1
12 13 13 12 12 12 12 12 12 11 11 11 11 10 10 10 10 9 9 9 8 8 7 7 7 6 6 6 5 5 5 4 4 4 3 3 2 2 2 2 1 1 1 1
12 12 12 12 12 12 11 11 11 11 11 11 10 10 10 9 9 9 8 8 8 7 7 6 6 6 5 5 4 4 4 3 3 3 2 2 2 2 1 1 1 1 0 0
12 12 11 11 11 11 11 11 11 11 10 10 10 10 9 9 9 8 8 7 7 6 6 6 5 5 4 4 4 3 3 3 2 2 2 1 1 1 1 1 0 0 -0 -0
11 11 11 11 11 11 11 10 10 10 10 10 9 9 9 8 8 7 7 6 6 6 5 5 4 4 4 3 3 3 2 2 2 1 1 1 1 0 0 0 -0 -0 -0 -0
11 11 11 11 10 10 10 10 10 9 9 9 9 8 8 8 7 7 6 6 5 5 4 4 4 3 3 3 2 2 2 1 1 1 1 1 0 0 -0 -0 -0 -0 -1 -1
10 10 10 10 10 10 10 9 9 9 8 8 8 7 7 7 7 6 5 5 4 4 4 4 3 3 3 2 2 2 1 1 1 1 0 0 0 -0 -0 -0 -1 -1 -1 -1
10 10 10 9 9 9 9 9 8 8 8 8 7 7 6 6 6 5 5 4 4 4 3 3 3 3 2 2 2 1 1 1 1 0 0 -0 -0 -0 -0 -1 -1 -1 -1 -1
Wind_Speed
6 6 6 6 8 9 7 9 8 8 10 12 12 11 9 7 8 9 8 8 8 8 8 8 8 8 8 8 8 9 8 8 8 7 6 6 5 5 5 5 6 6 6 7
5 3 2 4 7 8 7 6 6 6 6 6 7 6 7 7 10 10 8 7 7 7 7 7 7 7 7 7 6 7 7 6 5 4 4 3 2 2 2 2 3 3 4 5
5 5 2 4 6 6 4 5 8 8 8 8 7 8 9 10 10 10 9 8 7 7 6 6 6 7 7 7 7 8 7 5 5 5 5 3 3 2 1 1 0 1 2 2
2 2 5 7 2 1 3 0 4 7 9 12 11 9 8 8 11 11 10 10 8 8 8 7 8 8 9 10 11 10 9 7 6 5 5 4 4 3 1 1 1 1 1 0
3 4 6 5 2 1 2 1 3 13 15 15 16 13 9 7 11 12 11 10 9 9 10 10 10 10 13 12 12 11 10 8 6 6 6 6 5 4 2 2 3 3 2 2
4 4 6 5 4 2 4 1 1 12 17 14 9 6 5 8 13 14 13 12 11 11 13 12 10 11 14 13 12 11 9 8 7 7 7 6 5 4 3 3 4 5 5 5
5 5 5 3 6 2 4 6 5 9 13 11 4 6 12 13 14 15 14 13 13 13 13 10 9 13 14 12 10 8 7 7 7 7 6 6 5 4 4 5 6 6 6 5
4 4 6 2 2 2 4 2 5 8 10 11 13 17 15 15 15 15 15 13 13 13 12 9 9 13 13 10 7 7 8 8 7 6 6 6 6 6 5 6 6 5 5 5
4 5 3 2 2 2 2 3 4 7 12 18 19 17 16 14 14 14 13 12 11 13 12 9 9 10 11 7 7 8 8 7 6 6 5 5 5 5 4 4 3 3 3 3
1 3 3 2 0 2 2 4 6 11 16 18 18 17 16 15 13 13 12 11 10 12 12 9 8 8 8 7 7 8 8 6 5 5 6 5 4 4 3 3 2 2 2 2
1 2 1 2 2 5 8 9 11 13 15 16 19 17 15 14 13 12 11 9 9 10 10 8 8 8 7 7 8 8 7 6 5 5 5 4 4 3 3 1 2 3 1 1
3 2 2 2 4 10 12 12 15 17 15 14 16 17 15 13 10 11 10 10 10 10 9 8 8 7 6 6 7 7 6 6 5 4 4 4 4 5 7 5 7 7 5 4
2 4 6 7 9 11 13 15 17 17 17 16 14 15 15 12 10 10 10 10 10 9 9 8 7 7 6 6 7 7 6 4 4 4 4 4 3 4 3 5 8 8 7 5
5 9 9 9 12 14 17 19 18 17 15 15 14 14 14 13 11 11 10 9 9 9 8 8 8 6 5 6 7 7 5 5 4 3 4 4 4 3 3 3 3 4 5 7
9 11 12 14 15 16 17 18 19 16 15 14 13 14 13 13 11 9 8 9 10 9 8 8 8 5 5 6 7 6 5 4 4 4 4 4 4 3 3 3 3 3 4 5
14 15 16 17 17 16 17 17 17 15 14 13 12 11 11 11 10 9 8 9 9 8 7 7 6 4 5 6 6 5 4 6 5 4 4 4 4 4 4 4 4 4 4 4
14 12 14 16 15 14 13 13 13 13 13 13 12 11 11 11 10 9 8 8 8 7 6 6 5 4 5 5 5 4 4 5 7 5 4 4 4 4 4 4 4 4 4 5
12 12 12 14 15 14 13 12 12 12 11 11 11 11 10 10 9 8 7 7 8 7 5 4 4 5 5 5 4 3 3 3 3 4 3 3 3 3 3 3 4 4 4 5
15 16 15 15 14 13 12 11 11 10 10 10 10 9 8 8 7 7 7 8 7 5 2 3 7 6 5 5 5 4 4 4 4 3 3 4 4 3 3 3 4 4 4 4
15 14 14 13 12 12 11 10 10 9 8 9 9 8 7 6 7 7 7 5 3 3 3 5 6 5 4 5 6 4 5 5 4 3 3 4 3 3 3 4 4 4 5 5
13 12 12 12 10 10 9 9 9 8 7 8 8 8 7 6 7 7 7 5 2 4 6 7 5 4 4 5 6 5 5 5 4 4 4 3 3 3 4 4 4 4 5 5
10 10 10 10 9 8 6 6 7 7 7 6 7 8 8 8 7 6 5 4 4 7 6 4 3 5 6 6 5 5 5 5 4 4 4 3 3 3 4 4 4 4 5 5
8 8 8 8 7 6 6 6 6 6 6 6 7 7 7 6 6 6 4 2 4 8 6 4 5 8 9 6 5 5 5 5 4 4 3 3 3 3 3 4 4 4 5 5
7 7 6 5 6 6 5 4 4 5 6 6 6 7 8 7 4 3 5 7 8 8 5 5 7 8 8 4 4 4 4 4 4 3 3 3 3 4 4 4 4 5 5 6
5 5 5 5 5 4 4 5 6 6 7 6 5 5 5 5 6 5 5 6 7 7 4 4 7 8 5 4 4 4 3 3 3 3 3 3 4 4 4 4 4 5 5 5
3 3 3 3 4 4 4 5 5 4 5 5 5 5 5 5 7 6 5 5 6 5 3 2 3 4 4 4 4 4 3 4 4 4 4 4 4 4 4 4 6 5 5 5
4 4 4 4 4 4 5 5 5 4 4 5 5 4 5 5 5 5 5 4 4 3 3 3 3 3 3 4 4 4 3 3 4 4 4 4 4 3 4 4 4 4 4 5
Wind_Direction
253 228 204 209 205 189 178 179 183 206 189 200 191 188 185 173 155 141 147 153 158 162 163 161 164 168 172 175 176 172 168 177 193 201 205 209 211 215 216 214 215 211 210 216
311 271 251 241 218 200 196 187 189 176 206 204 165 150 151 146 139 133 135 142 141 142 147 153 156 158 159 160 163 153 157 171 177 175 178 182 182 180 179 209 222 213 215 216
291 296 345 261 235 210 198 191 170 185 198 148 137 144 150 141 130 128 127 120 116 119 131 138 138 135 133 133 119 110 111 110 119 127 123 123 114 95 104 207 190 210 221 207
244 352 236 242 282 122 134 132 164 145 143 134 124 105 89 112 121 118 114 105 96 97 101 101 102 101 99 97 96 96 95 93 97 107 110 96 84 75 44 39 79 91 62 87
167 217 263 288 326 70 111 22 127 131 126 118 113 90 70 83 107 110 106 101 94 91 93 91 92 96 94 88 87 86 83 80 78 88 89 80 74 60 43 45 35 34 37 52
164 189 225 248 308 313 99 111 205 136 138 137 124 125 146 121 108 102 97 96 93 87 85 84 83 90 89 85 82 80 79 75 70 71 78 77 73 66 49 52 44 47 51 53
181 211 242 277 314 345 155 204 196 154 146 143 151 150 138 123 109 106 101 97 94 90 85 82 84 89 88 85 84 86 85 79 71 70 76 76 66 61 61 62 58 58 62 54
170 200 235 298 20 167 198 178 159 151 140 125 116 118 121 118 114 111 106 100 98 95 89 81 81 89 88 83 82 80 77 71 65 60 65 72 69 60 55 59 61 59 64 55
194 207 251 258 207 215 173 133 139 142 130 127 128 128 125 119 116 112 109 105 100 100 94 83 80 89 93 88 81 76 71 66 59 52 52 59 68 65 56 57 66 61 72 73
224 256 264 308 47 102 122 124 135 132 129 132 130 128 125 123 119 115 112 110 109 105 101 93 85 85 91 89 82 76 68 58 52 51 46 47 56 68 75 71 73 67 67 74
220 264 342 38 114 115 101 104 109 119 126 131 129 128 127 125 123 122 118 113 110 109 108 106 96 87 84 83 82 73 63 54 49 49 52 48 44 53 77 85 127 123 118 120
209 222 137 121 118 120 118 120 124 121 114 119 126 127 125 122 122 122 120 117 113 110 109 105 99 92 83 80 81 76 60 46 42 41 40 43 47 42 43 62 66 82 100 103
162 115 113 109 105 111 114 116 118 118 119 118 116 120 119 118 117 117 118 119 120 119 115 108 99 89 78 75 74 71 66 52 42 40 42 39 45 61 45 28 42 53 55 50
130 114 98 99 106 106 107 108 108 106 109 113 115 114 114 111 111 113 117 123 120 114 109 104 94 82 71 71 70 63 55 45 46 45 46 50 54 58 64 58 28 10 15 17
97 102 108 106 104 106 108 110 110 110 109 108 111 113 114 113 113 113 113 111 107 104 103 101 95 84 71 70 65 55 49 39 45 49 52 58 59 53 46 45 39 14 0 357
99 98 100 103 105 108 111 113 114 115 115 113 112 112 112 112 111 107 105 109 110 110 110 106 102 92 72 67 61 47 34 41 56 58 54 51 44 42 35 32 27 19 8 350
110 109 111 110 108 108 109 111 114 115 114 114 116 116 112 110 107 105 101 102 105 107 107 108 108 92 71 66 61 45 36 39 52 61 60 55 49 45 41 40 27 9 353 351
100 108 112 115 115 111 107 106 108 110 113 117 116 113 112 114 118 119 117 106 97 86 84 98 101 84 64 51 48 44 57 60 59 69 70 59 49 44 42 29 11 1 344 347
97 99 99 100 104 106 105 105 105 107 112 115 115 117 118 119 122 121 113 109 112 107 80 74 86 80 66 41 52 57 68 70 66 63 62 56 52 39 27 12 360 353 350 352
93 94 95 95 97 103 105 106 107 106 110 115 115 115 116 120 123 118 109 103 112 138 127 93 78 66 48 37 57 63 70 73 71 60 49 45 39 26 15 9 3 357 355 352
95 96 97 100 99 100 108 113 113 113 114 117 120 124 125 121 119 116 112 105 80 105 98 86 76 61 48 52 59 67 72 70 63 54 47 39 31 21 11 4 2 359 354 348
91 93 94 98 99 98 102 108 113 116 114 112 116 117 116 113 110 101 99 122 127 115 102 84 76 73 75 70 69 77 75 70 60 51 44 33 26 16 7 3 359 356 355 352
94 94 92 95 101 101 93 97 105 112 118 125 131 131 131 135 135 130 122 126 120 111 103 94 89 83 80 74 75 79 76 66 55 49 41 31 23 16 11 7 4 2 360 356
96 96 97 96 94 95 94 95 97 103 107 111 123 132 131 121 100 101 127 125 121 110 99 100 93 85 80 79 80 76 69 61 52 43 36 29 24 21 18 16 12 7 5 2
97 91 87 90 94 105 109 97 89 88 91 90 91 101 114 124 130 131 125 126 127 117 110 99 93 86 82 84 87 80 68 59 58 53 44 36 26 22 20 20 18 14 11 6
97 98 97 102 114 115 109 102 101 102 104 102 94 92 98 106 117 121 122 129 132 130 126 105 95 91 91 92 91 90 75 55 53 54 48 39 32 33 32 30 28 22 10 1
73 73 75 70 69 85 96 103 110 112 117 119 113 109 112 113 116 122 123 124 124 124 119 112 106 105 103 100 95 88 78 67 61 58 50 44 40 38 34 34 25 12 4 358
Height
1458 1452 1453 1453 1453 1455 1463 1469 1477 1473 1471 1467 1464 1466 1468 1471 1473 1475 1478 1480 1481 1483 1486 1488 1491 1495 1498 1501 1504 1508 1510 1513 1516 1519 1521 1523 1525 1526 1528 1529 1529 1530 1531 1531
1459 1450 1449 1450 1447 1448 1452 1455 1460 1462 1466 1459 1461 1465 1468 1470 1472 1474 1477 1479 1481 1483 1485 1488 1490 1493 1496 1500 1503 1506 1508 1511 1513 1516 1518 1520 1521 1523 1524 1524 1525 1525 1525 1526
1470 1457 1454 1460 1449 1447 1448 1446 1451 1460 1460 1458 1462 1465 1467 1469 1471 1474 1476 1479 1480 1482 1484 1487 1490 1493 1495 1498 1501 1504 1506 1508 1511 1513 1515 1517 1518 1520 1520 1520 1520 1520 1520 1521
1472 1466 1474 1457 1442 1441 1444 1446 1444 1446 1451 1455 1460 1465 1468 1470 1472 1475 1477 1479 1481 1482 1484 1487 1490 1492 1495 1497 1500 1502 1504 1507 1509 1511 1512 1514 1515 1516 1516 1516 1516 1515 1516 1517
1474 1474 1465 1452 1445 1445 1449 1453 1446 1447 1453 1459 1462 1467 1473 1474 1475 1476 1478 1480 1482 1484 1485 1487 1490 1493 1495 1497 1500 1502 1504 1506 1508 1509 1510 1511 1511 1512 1513 1513 1512 1512 1513 1513
1469 1471 1471 1456 1446 1442 1446 1458 1450 1447 1451 1457 1460 1471 1477 1477 1476 1479 1480 1483 1485 1487 1488 1490 1492 1494 1496 1498 1501 1503 1505 1507 1508 1508 1509 1509 1510 1510 1511 1510 1510 1510 1511 1510
1465 1467 1458 1450 1445 1444 1458 1456 1450 1448 1450 1455 1460 1465 1472 1475 1477 1480 1482 1485 1487 1489 1491 1493 1495 1497 1498 1500 1502 1504 1506 1507 1508 1508 1509 1509 1509 1509 1509 1509 1509 1509 1509 1509
1462 1466 1461 1446 1445 1449 1449 1446 1448 1450 1452 1456 1460 1467 1471 1475 1479 1481 1484 1488 1490 1491 1493 1496 1498 1499 1500 1502 1505 1506 1507 1508 1508 1509 1509 1509 1509 1509 1509 1509 1509 1509 1508 1508
1455 1455 1448 1445 1443 1444 1444 1445 1447 1450 1452 1456 1461 1467 1473 1477 1481 1484 1487 1490 1492 1494 1496 1499 1501 1502 1503 1506 1507 1508 1509 1509 1510 1510 1510 1510 1509 1509 1509 1509 1508 1508 1507 1506
1450 1446 1444 1443 1443 1443 1444 1444 1447 1450 1454 1459 1464 1469 1475 1479 1483 1487 1491 1493 1496 1497 1499 1502 1505 1506 1507 1508 1510 1510 1510 1511 1511 1511 1511 1510 1510 1509 1508 1508 1507 1506 1505 1504
1447 1445 1442 1442 1443 1443 1445 1446 1450 1455 1458 1462 1465 1472 1477 1482 1486 1490 1494 1497 1499 1501 1503 1505 1507 1509 1510 1511 1511 1511 1512 1512 1512 1512 1511 1510 1509 1509 1507 1507 1506 1505 1503 1502
1447 1444 1443 1444 1444 1445 1447 1451 1454 1458 1463 1467 1470 1475 1480 1485 1489 1493 1496 1499 1502 1504 1506 1508 1509 1510 1512 1513 1513 1512 1512 1512 1512 1511 1511 1510 1509 1508 1506 1505 1504 1502 1501 1499
1443 1444 1444 1445 1446 1449 1451 1454 1458 1462 1466 1472 1477 1480 1483 1488 1492 1496 1499 1502 1504 1506 1508 1510 1511 1512 1513 1513 1513 1513 1512 1512 1511 1511 1509 1508 1507 1506 1505 1503 1502 1500 1498 1496
1444 1445 1447 1448 1450 1453 1456 1460 1464 1469 1474 1478 1481 1485 1488 1492 1496 1499 1502 1505 1506 1508 1510 1511 1512 1513 1513 1513 1513 1512 1512 1511 1510 1509 1508 1507 1505 1504 1503 1501 1499 1497 1495 1494
1448 1449 1451 1454 1456 1459 1462 1466 1470 1476 1480 1484 1487 1490 1493 1495 1499 1502 1505 1507 1508 1510 1511 1512 1513 1513 1513 1513 1512 1512 1511 1510 1509 1508 1506 1505 1503 1502 1500 1498 1496 1494 1492 1490
1453 1456 1457 1459 1462 1466 1469 1472 1476 1480 1484 1488 1491 1494 1497 1499 1502 1504 1507 1508 1510 1511 1512 1513 1513 1513 1513 1512 1511 1511 1509 1508 1507 1506 1504 1503 1501 1499 1497 1495 1494 1492 1489 1487
1457 1461 1463 1465 1468 1472 1475 1477 1480 1484 1488 1491 1494 1497 1500 1502 1504 1506 1508 1510 1511 1512 1513 1513 1513 1513 1512 1511 1510 1509 1508 1507 1505 1504 1502 1501 1499 1497 1495 1493 1492 1490 1488 1485
1462 1464 1467 1470 1473 1476 1480 1483 1486 1489 1492 1495 1498 1500 1502 1504 1506 1508 1509 1511 1512 1512 1513 1513 1513 1512 1511 1510 1509 1507 1506 1505 1504 1502 1501 1499 1497 1496 1494 1492 1490 1488 1485 1483
1467 1470 1473 1476 1479 1481 1484 1488 1490 1493 1496 1498 1500 1502 1504 1506 1507 1509 1510 1511 1511 1512 1512 1512 1512 1511 1510 1509 1507 1506 1505 1503 1502 1501 1499 1497 1496 1494 1492 1490 1488 1486 1484 1481
1474 1476 1479 1482 1485 1487 1489 1492 1494 1497 1499 1500 1502 1504 1505 1507 1508 1509 1510 1511 1511 1511 1511 1511 1510 1509 1508 1507 1506 1504 1503 1502 1501 1499 1498 1496 1494 1493 1491 1489 1487 1485 1482 1479
1480 1482 1484 1487 1489 1491 1493 1495 1497 1499 1500 1502 1503 1504 1506 1507 1508 1509 1510 1510 1511 1511 1510 1510 1509 1508 1507 1505 1504 1503 1502 1501 1499 1498 1496 1495 1493 1492 1490 1488 1486 1484 1481 1478
1484 1486 1488 1490 1492 1494 1496 1497 1499 1500 1501 1502 1504 1505 1506 1507 1508 1509 1509 1510 1509 1509 1509 1508 1507 1506 1505 1504 1503 1502 1501 1500 1499 1497 1496 1494 1493 1491 1489 1487 1485 1482 1480 1477
1488 1490 1492 1493 1495 1497 1498 1499 1500 1501 1502 1503 1504 1505 1506 1507 1507 1508 1508 1508 1508 1507 1507 1506 1506 1505 1505 1504 1503 1502 1501 1499 1498 1497 1496 1494 1492 1490 1489 1486 1484 1482 1479 1476
1491 1493 1494 1495 1497 1498 1499 1500 1500 1501 1502 1503 1504 1504 1505 1505 1506 1506 1506 1506 1506 1506 1506 1506 1505 1505 1504 1503 1503 1502 1501 1500 1498 1497 1496 1494 1492 1490 1488 1486 1483 1481 1478 1475
1493 1494 1495 1496 1497 1498 1499 1500 1500 1501 1501 1502 1503 1504 1504 1504 1505 1505 1505 1505 1506 1506 1506 1505 1505 1505 1504 1503 1503 1502 1501 1500 1499 1497 1496 1494 1492 1490 1488 1485 1483 1480 1477 1474
1494 1495 1496 1497 1498 1498 1499 1499 1500 1500 1501 1501 1502 1503 1503 1503 1504 1504 1504 1505 1505 1506 1506 1505 1505 1505 1504 1504 1503 1502 1501 1500 1499 1497 1496 1494 1492 1490 1487 1485 1482 1479 1476 1473
1495 1496 1496 1497 1498 1498 1499 1499 1499 1500 1500 1501 1501 1502 1502 1503 1503 1504 1504 1505 1505 1505 1506 1506 1505 1505 1505 1504 1504 1503 1502 1501 1499 1498 1496 1494 1492 1489 1487 1484 1482 1479 1475 1472